Time,TemperatureF,DewpointF,PressureIn,WindDirection,WindDirectionDegrees,WindSpeedMPH,WindSpeedGustMPH,Humidity,HourlyPrecipIn,Conditions,Clouds,dailyrainin,SoftwareType,DateUTC
2013-04-23 00:01:00,54.5,47.4,30.11,SE,140,0.0,0.0,77,0.00,CLR,FEW,0.00,WeatherDisplay:10.37,2013-04-23 05:01:00,
2013-04-23 00:06:00,54.3,47.2,30.11,SE,140,0.0,0.0,77,0.00,CLR,FEW,0.00,WeatherDisplay:10.37,2013-04-23 05:06:00,
2013-04-23 00:11:00,54.1,47.4,30.11,SE,140,0.0,0.0,78,0.00,CLR,FEW,0.00,WeatherDisplay:10.37,2013-04-23 05:11:00,
2013-04-23 00:16:00,54.0,47.3,30.11,SE,140,0.0,0.0,78,0.00,CLR,FEW,0.00,WeatherDisplay:10.37,2013-04-23 05:16:00,
2013-04-23 00:21:00,53.9,47.2,30.11,SE,140,0.0,0.0,78,0.00,FEW,,0.00,WeatherDisplay:10.37,2013-04-23 05:21:00,
2013-04-23 00:26:00,53.8,47.4,30.11,SE,140,0.0,0.0,79,0.00,FEW,,0.00,WeatherDisplay:10.37,2013-04-23 05:26:00,
2013-04-23 00:31:00,53.7,47.3,30.11,SE,140,0.0,0.0,79,0.00,FEW,,0.00,WeatherDisplay:10.37,2013-04-23 05:31:00,
2013-04-23 00:36:00,53.7,47.3,30.11,SE,140,0.0,0.0,79,0.00,FEW,,0.00,WeatherDisplay:10.37,2013-04-23 05:36:00,
2013-04-23 00:41:00,53.7,47.3,30.11,SE,140,0.0,0.0,79,0.00,FEW,,0.00,WeatherDisplay:10.37,2013-04-23 05:41:00,
2013-04-23 00:46:00,53.6,47.6,30.10,SE,140,1.2,0.0,80,0.00,FEW,,0.00,WeatherDisplay:10.37,2013-04-23 05:46:00,
2013-04-23 00:51:00,53.6,47.6,30.10,SE,140,0.0,0.0,80,0.00,FEW,,0.00,WeatherDisplay:10.37,2013-04-23 05:51:00,
2013-04-23 00:56:00,53.5,47.5,30.10,SE,140,0.0,0.0,80,0.00,FEW,,0.00,WeatherDisplay:10.37,2013-04-23 05:56:00,
2013-04-23 01:01:00,53.5,47.8,30.10,SE,140,0.0,0.0,81,0.00,FEW,,0.00,WeatherDisplay:10.37,2013-04-23 06:01:00,
2013-04-23 01:06:00,53.3,47.6,30.10,SE,140,0.0,0.0,81,0.00,FEW,,0.00,WeatherDisplay:10.37,2013-04-23 06:06:00,
2013-04-23 01:11:00,53.1,47.4,30.10,SE,140,0.0,0.0,81,0.00,FEW,,0.00,WeatherDisplay:10.37,2013-04-23 06:11:00,
2013-04-23 01:16:00,52.9,47.2,30.09,SE,140,0.0,0.0,81,0.00,FEW,,0.00,WeatherDisplay:10.37,2013-04-23 06:16:00,
2013-04-23 01:21:00,52.7,47.4,30.09,SE,140,1.2,0.0,82,0.00,FEW,,0.00,WeatherDisplay:10.37,2013-04-23 06:21:00,
2013-04-23 01:26:00,52.5,47.2,30.09,SE,140,0.0,0.0,82,0.00,FEW,,0.00,WeatherDisplay:10.37,2013-04-23 06:26:00,
2013-04-23 01:31:00,52.3,47.0,30.09,SE,140,0.0,0.0,82,0.00,FEW,,0.00,WeatherDisplay:10.37,2013-04-23 06:31:00,
2013-04-23 01:36:00,52.2,47.2,30.09,SE,140,0.0,0.0,83,0.00,FEW,,0.00,WeatherDisplay:10.37,2013-04-23 06:36:00,
2013-04-23 01:41:00,52.1,47.4,30.09,SE,140,0.0,0.0,84,0.00,FEW,,0.00,WeatherDisplay:10.37,2013-04-23 06:41:00,
2013-04-23 01:46:00,51.9,47.5,30.09,SE,140,0.0,0.0,85,0.00,FEW,,0.00,WeatherDisplay:10.37,2013-04-23 06:46:00,
2013-04-23 01:51:00,51.7,47.6,30.08,SE,140,0.0,0.0,86,0.00,FEW,,0.00,WeatherDisplay:10.37,2013-04-23 06:51:00,
2013-04-23 01:56:00,51.6,47.2,30.08,SE,140,0.0,0.0,85,0.00,FEW,,0.00,WeatherDisplay:10.37,2013-04-23 06:56:00,
2013-04-23 02:01:00,51.5,47.1,30.08,SE,140,0.0,0.0,85,0.00,FEW,,0.00,WeatherDisplay:10.37,2013-04-23 07:01:00,
2013-04-23 02:06:00,51.4,47.0,30.08,SE,140,0.0,0.0,85,0.00,FEW,,0.00,WeatherDisplay:10.37,2013-04-23 07:06:00,
2013-04-23 02:12:00,51.3,46.9,30.08,SE,140,0.0,0.0,85,0.00,FEW,,0.00,WeatherDisplay:10.37,2013-04-23 07:12:00,
2013-04-23 02:17:00,51.2,47.2,30.08,SE,140,0.0,0.0,86,0.00,FEW,,0.00,WeatherDisplay:10.37,2013-04-23 07:17:00,
2013-04-23 02:22:00,51.2,47.5,30.08,SE,140,0.0,0.0,87,0.00,FEW,,0.00,WeatherDisplay:10.37,2013-04-23 07:22:00,
2013-04-23 02:27:00,51.1,47.4,30.07,SE,140,0.0,0.0,87,0.00,FEW,,0.00,WeatherDisplay:10.37,2013-04-23 07:27:00,
2013-04-23 02:32:00,51.3,47.6,30.07,SE,140,0.0,0.0,87,0.00,FEW,,0.00,WeatherDisplay:10.37,2013-04-23 07:32:00,
2013-04-23 02:37:00,51.3,47.3,30.07,SE,140,0.0,0.0,86,0.00,FEW,,0.00,WeatherDisplay:10.37,2013-04-23 07:37:00,
2013-04-23 02:42:00,51.3,47.3,30.06,SE,140,0.0,0.0,86,0.00,FEW,,0.00,WeatherDisplay:10.37,2013-04-23 07:42:00,
2013-04-23 02:47:00,51.3,47.3,30.07,SE,140,0.0,0.0,86,0.00,FEW,,0.00,WeatherDisplay:10.37,2013-04-23 07:47:00,
2013-04-23 02:52:00,51.2,47.5,30.06,SE,140,0.0,0.0,87,0.00,FEW,,0.00,WeatherDisplay:10.37,2013-04-23 07:52:00,
2013-04-23 02:57:00,51.1,47.4,30.06,SE,140,0.0,0.0,87,0.00,FEW,,0.00,WeatherDisplay:10.37,2013-04-23 07:57:00,
2013-04-23 03:02:00,51.2,47.8,30.06,SE,140,0.0,0.0,88,0.00,CLR,FEW,0.00,WeatherDisplay:10.37,2013-04-23 08:02:00,
2013-04-23 03:07:00,51.3,47.9,30.06,SE,140,0.0,0.0,88,0.00,CLR,FEW,0.00,WeatherDisplay:10.37,2013-04-23 08:07:00,
2013-04-23 03:12:00,51.4,48.3,30.06,SE,140,0.0,0.0,89,0.00,CLR,FEW,0.00,WeatherDisplay:10.37,2013-04-23 08:12:00,
2013-04-23 03:17:00,51.5,48.4,30.06,SE,140,0.0,0.0,89,0.00,CLR,FEW,0.00,WeatherDisplay:10.37,2013-04-23 08:17:00,
2013-04-23 03:22:00,51.6,48.5,30.07,SE,140,0.0,0.0,89,0.00,CLR,FEW,0.00,WeatherDisplay:10.37,2013-04-23 08:22:00,
2013-04-23 03:27:00,51.6,48.2,30.07,SE,140,0.0,0.0,88,0.00,CLR,FEW,0.00,WeatherDisplay:10.37,2013-04-23 08:27:00,
2013-04-23 03:32:00,51.5,48.4,30.06,SE,140,0.0,0.0,89,0.00,CLR,FEW,0.00,WeatherDisplay:10.37,2013-04-23 08:32:00,
2013-04-23 03:37:00,51.5,48.7,30.06,SE,140,0.0,0.0,90,0.00,CLR,FEW,0.00,WeatherDisplay:10.37,2013-04-23 08:37:00,
2013-04-23 03:42:00,51.4,48.6,30.06,SE,140,0.0,0.0,90,0.00,CLR,FEW,0.00,WeatherDisplay:10.37,2013-04-23 08:42:00,
2013-04-23 03:47:00,51.3,48.5,30.06,SE,140,0.0,0.0,90,0.00,CLR,FEW,0.00,WeatherDisplay:10.37,2013-04-23 08:47:00,
2013-04-23 03:52:00,51.2,48.4,30.06,SE,140,0.0,0.0,90,0.00,CLR,FEW,0.00,WeatherDisplay:10.37,2013-04-23 08:52:00,
2013-04-23 03:57:00,51.0,48.2,30.06,SE,140,1.2,1.2,90,0.00,CLR,FEW,0.00,WeatherDisplay:10.37,2013-04-23 08:57:00,
2013-04-23 04:02:00,51.0,48.5,30.06,SE,140,0.0,0.0,91,0.00,,FEW,0.00,WeatherDisplay:10.37,2013-04-23 09:02:00,
2013-04-23 04:07:00,51.0,48.5,30.06,SE,140,0.0,0.0,91,0.00,,FEW,0.00,WeatherDisplay:10.37,2013-04-23 09:07:00,
2013-04-23 04:12:00,51.2,49.2,30.05,SE,140,1.2,1.2,93,0.00,,FEW,0.00,WeatherDisplay:10.37,2013-04-23 09:12:00,
2013-04-23 04:17:00,51.4,49.2,30.05,SE,140,1.2,1.2,92,0.00,,FEW,0.00,WeatherDisplay:10.37,2013-04-23 09:17:00,
2013-04-23 04:22:00,51.6,49.4,30.06,SE,140,1.2,1.2,92,0.00,FEW,,0.00,WeatherDisplay:10.37,2013-04-23 09:22:00,
2013-04-23 04:27:00,51.7,49.5,30.06,SE,140,0.0,0.0,92,0.00,FEW,,0.00,WeatherDisplay:10.37,2013-04-23 09:27:00,
2013-04-23 04:32:00,51.7,49.7,30.06,SE,140,2.3,2.3,93,0.00,FEW,,0.00,WeatherDisplay:10.37,2013-04-23 09:32:00,
2013-04-23 04:37:00,51.9,49.9,30.06,NE,36,1.2,1.2,93,0.00,FEW,,0.00,WeatherDisplay:10.37,2013-04-23 09:37:00,
2013-04-23 04:42:00,52.1,50.4,30.06,NE,36,2.3,2.3,94,0.00,FEW,,0.00,WeatherDisplay:10.37,2013-04-23 09:42:00,
2013-04-23 04:47:00,52.4,50.7,30.06,East,86,2.3,2.3,94,0.00,FEW,,0.00,WeatherDisplay:10.37,2013-04-23 09:47:00,
2013-04-23 04:52:00,52.9,50.9,30.06,East,80,3.5,3.5,93,0.00,FEW,,0.00,WeatherDisplay:10.37,2013-04-23 09:52:00,
2013-04-23 04:57:00,53.1,50.8,30.05,ENE,74,2.3,2.3,92,0.00,FEW,,0.00,WeatherDisplay:10.37,2013-04-23 09:57:00,
2013-04-23 05:02:00,53.5,50.9,30.06,East,93,1.2,1.2,91,0.00,FEW,,0.00,WeatherDisplay:10.37,2013-04-23 10:02:00,
2013-04-23 05:07:00,53.5,50.9,30.06,East,93,1.2,1.2,91,0.00,FEW,,0.00,WeatherDisplay:10.37,2013-04-23 10:07:00,
2013-04-23 05:12:00,53.5,51.2,30.07,East,93,0.0,0.0,92,0.00,FEW,,0.00,WeatherDisplay:10.37,2013-04-23 10:12:00,
2013-04-23 05:17:00,53.4,51.1,30.06,East,93,1.2,1.2,92,0.00,FEW,,0.00,WeatherDisplay:10.37,2013-04-23 10:17:00,
2013-04-23 05:22:00,53.3,51.0,30.06,ENE,66,2.3,2.3,92,0.00,FEW,,0.00,WeatherDisplay:10.37,2013-04-23 10:22:00,
2013-04-23 05:27:00,53.5,51.2,30.06,SE,140,2.3,2.3,92,0.00,FEW,,0.00,WeatherDisplay:10.37,2013-04-23 10:27:00,
2013-04-23 05:32:00,53.7,51.4,30.06,SE,140,1.2,1.2,92,0.00,FEW,,0.00,WeatherDisplay:10.37,2013-04-23 10:32:00,
2013-04-23 05:37:00,53.8,51.2,30.06,NE,44,2.3,2.3,91,0.00,FEW,,0.00,WeatherDisplay:10.37,2013-04-23 10:37:00,
2013-04-23 05:42:00,53.9,51.3,30.06,East,84,3.5,3.5,91,0.00,FEW,,0.00,WeatherDisplay:10.37,2013-04-23 10:42:00,
2013-04-23 05:47:00,54.0,51.4,30.06,SE,133,2.3,2.3,91,0.00,FEW,,0.00,WeatherDisplay:10.37,2013-04-23 10:47:00,
2013-04-23 05:52:00,54.0,51.4,30.06,East,93,2.3,2.3,91,0.00,FEW,,0.00,WeatherDisplay:10.37,2013-04-23 10:52:00,
2013-04-23 05:57:00,54.0,51.4,30.06,ENE,71,3.5,3.5,91,0.00,FEW,,0.00,WeatherDisplay:10.37,2013-04-23 10:57:00,
2013-04-23 06:02:00,53.9,51.6,30.06,ENE,71,2.3,2.3,92,0.00,BKN,FEW,0.00,WeatherDisplay:10.37,2013-04-23 11:02:00,
2013-04-23 06:07:00,53.6,51.3,30.07,ENE,78,2.3,2.3,92,0.00,BKN,FEW,0.00,WeatherDisplay:10.37,2013-04-23 11:07:00,
2013-04-23 06:12:00,53.6,51.6,30.07,ENE,78,2.3,2.3,93,0.00,BKN,FEW,0.00,WeatherDisplay:10.37,2013-04-23 11:12:00,
2013-04-23 06:17:00,53.5,51.5,30.07,ENE,78,2.3,2.3,93,0.00,BKN,FEW,0.00,WeatherDisplay:10.37,2013-04-23 11:17:00,
2013-04-23 06:22:00,53.5,51.5,30.07,ENE,78,0.0,0.0,93,0.00,BKN,FEW,0.00,WeatherDisplay:10.37,2013-04-23 11:22:00,
2013-04-23 06:27:00,53.4,51.4,30.08,ENE,78,0.0,0.0,93,0.00,BKN,FEW,0.00,WeatherDisplay:10.37,2013-04-23 11:27:00,
2013-04-23 06:32:00,53.4,51.4,30.08,ENE,78,1.2,0.0,93,0.00,BKN,FEW,0.00,WeatherDisplay:10.37,2013-04-23 11:32:00,
2013-04-23 06:37:00,53.5,51.8,30.07,ENE,78,2.3,2.3,94,0.00,BKN,FEW,0.00,WeatherDisplay:10.37,2013-04-23 11:37:00,
2013-04-23 06:42:00,53.7,52.0,30.07,ENE,78,3.5,3.5,94,0.00,BKN,FEW,0.00,WeatherDisplay:10.37,2013-04-23 11:42:00,
2013-04-23 06:47:00,54.0,52.3,30.07,ESE,111,2.3,2.3,94,0.00,BKN,FEW,0.00,WeatherDisplay:10.37,2013-04-23 11:47:00,
2013-04-23 06:52:00,54.3,52.6,30.08,ESE,111,2.3,2.3,94,0.00,BKN,FEW,0.00,WeatherDisplay:10.37,2013-04-23 11:52:00,
2013-04-23 06:57:00,54.7,52.7,30.08,ESE,111,0.0,0.1,93,0.00,BKN,FEW,0.00,WeatherDisplay:10.37,2013-04-23 11:57:00,
2013-04-23 07:02:00,55.3,52.7,30.08,ESE,107,1.2,1.2,91,0.00,BKN,FEW,0.00,WeatherDisplay:10.37,2013-04-23 12:02:00,
2013-04-23 07:07:00,56.2,52.7,30.08,SE,124,1.2,1.2,88,0.00,BKN,FEW,0.00,WeatherDisplay:10.37,2013-04-23 12:07:00,
2013-04-23 07:12:00,57.1,53.0,30.09,SSE,159,2.3,2.3,86,0.00,BKN,FEW,0.00,WeatherDisplay:10.37,2013-04-23 12:12:00,
2013-04-23 07:17:00,57.9,52.8,30.09,ENE,65,1.2,1.2,83,0.00,BKN,FEW,0.00,WeatherDisplay:10.37,2013-04-23 12:17:00,
2013-04-23 07:22:00,58.5,52.4,30.09,South,178,4.6,4.6,80,0.00,BKN,FEW,0.00,WeatherDisplay:10.37,2013-04-23 12:22:00,
2013-04-23 07:27:00,58.9,52.4,30.09,SE,127,3.5,3.5,79,0.00,BKN,FEW,0.00,WeatherDisplay:10.37,2013-04-23 12:27:00,
2013-04-23 07:32:00,59.3,52.8,30.09,NNE,25,5.8,5.8,79,0.00,BKN,FEW,0.00,WeatherDisplay:10.37,2013-04-23 12:32:00,
2013-04-23 07:37:00,59.9,52.7,30.09,SSE,150,3.5,3.5,77,0.00,BKN,FEW,0.00,WeatherDisplay:10.37,2013-04-23 12:37:00,
2013-04-23 07:42:00,60.4,53.2,30.09,SSW,198,5.8,5.8,77,0.00,BKN,FEW,0.00,WeatherDisplay:10.37,2013-04-23 12:42:00,
2013-04-23 07:47:00,60.8,53.2,30.08,ESE,113,8.1,8.1,76,0.00,BKN,FEW,0.00,WeatherDisplay:10.37,2013-04-23 12:47:00,
2013-04-23 07:52:00,61.3,53.3,30.08,ESE,111,3.5,3.5,75,0.00,BKN,FEW,0.00,WeatherDisplay:10.37,2013-04-23 12:52:00,
2013-04-23 07:57:00,61.9,53.9,30.08,SSE,156,4.3,4.3,75,0.00,BKN,FEW,0.00,WeatherDisplay:10.37,2013-04-23 12:57:00,
2013-04-23 08:02:00,62.5,54.1,30.08,SSE,155,8.1,8.1,74,0.00,BKN,FEW,0.00,WeatherDisplay:10.37,2013-04-23 13:02:00,
2013-04-23 08:07:00,63.0,53.8,30.08,SSW,203,5.8,5.8,72,0.00,BKN,FEW,0.00,WeatherDisplay:10.37,2013-04-23 13:07:00,
2013-04-23 08:13:00,63.3,54.1,30.09,SW,227,9.2,9.2,72,0.00,BKN,FEW,0.00,WeatherDisplay:10.37,2013-04-23 13:13:00,
2013-04-23 08:18:00,63.6,54.4,30.08,SW,223,9.6,9.6,72,0.00,BKN,FEW,0.00,WeatherDisplay:10.37,2013-04-23 13:18:00,
2013-04-23 08:23:00,64.0,54.4,30.08,WSW,257,4.6,4.6,71,0.00,SCT,FEW,0.00,WeatherDisplay:10.37,2013-04-23 13:23:00,
2013-04-23 08:28:00,64.5,54.9,30.08,WSW,250,6.9,6.9,71,0.00,SCT,FEW,0.00,WeatherDisplay:10.37,2013-04-23 13:28:00,
2013-04-23 08:33:00,64.9,54.9,30.08,SSE,161,8.1,8.1,70,0.00,SCT,FEW,0.00,WeatherDisplay:10.37,2013-04-23 13:33:00,
2013-04-23 08:38:00,65.2,55.2,30.08,SW,222,6.9,6.9,70,0.00,SCT,FEW,0.00,WeatherDisplay:10.37,2013-04-23 13:38:00,
2013-04-23 08:43:00,65.6,55.2,30.08,SE,146,8.1,8.1,69,0.00,SCT,FEW,0.00,WeatherDisplay:10.37,2013-04-23 13:43:00,
2013-04-23 08:48:00,66.1,56.4,30.08,WSW,247,3.5,3.5,71,0.00,SCT,FEW,0.00,WeatherDisplay:10.37,2013-04-23 13:48:00,
2013-04-23 08:53:00,66.1,55.2,30.08,SW,215,9.2,9.2,68,0.00,SCT,FEW,0.00,WeatherDisplay:10.37,2013-04-23 13:53:00,
2013-04-23 08:58:00,65.9,55.4,30.07,South,180,8.1,8.1,69,0.00,SCT,FEW,0.00,WeatherDisplay:10.37,2013-04-23 13:58:00,
2013-04-23 09:03:00,65.7,55.6,30.07,East,98,4.6,4.6,70,0.00,SCT,FEW,0.00,WeatherDisplay:10.37,2013-04-23 14:03:00,
2013-04-23 09:08:00,65.7,55.6,30.07,SW,218,6.9,6.9,70,0.00,SCT,FEW,0.00,WeatherDisplay:10.37,2013-04-23 14:08:00,
2013-04-23 09:13:00,65.5,55.5,30.07,South,178,4.6,4.6,70,0.00,SCT,FEW,0.00,WeatherDisplay:10.37,2013-04-23 14:13:00,
2013-04-23 09:18:00,65.3,55.3,30.07,SE,144,4.6,4.6,70,0.00,SCT,FEW,0.00,WeatherDisplay:10.37,2013-04-23 14:18:00,
2013-04-23 09:23:00,65.3,55.3,30.07,SW,215,9.2,9.2,70,0.00,CLR,FEW,0.00,WeatherDisplay:10.37,2013-04-23 14:23:00,
2013-04-23 09:28:00,65.3,55.7,30.07,SSW,195,6.9,6.9,71,0.00,CLR,FEW,0.00,WeatherDisplay:10.37,2013-04-23 14:28:00,
2013-04-23 09:33:00,65.6,55.9,30.07,WNW,288,5.8,5.8,71,0.00,CLR,FEW,0.00,WeatherDisplay:10.37,2013-04-23 14:33:00,
2013-04-23 09:38:00,65.8,56.1,30.07,South,188,6.9,6.9,71,0.00,CLR,FEW,0.00,WeatherDisplay:10.37,2013-04-23 14:38:00,
2013-04-23 09:43:00,65.9,55.4,30.07,SE,146,8.1,8.1,69,0.00,CLR,FEW,0.00,WeatherDisplay:10.37,2013-04-23 14:43:00,
2013-04-23 09:48:00,66.0,55.5,30.07,SSE,163,10.4,10.4,69,0.00,CLR,FEW,0.00,WeatherDisplay:10.37,2013-04-23 14:48:00,
2013-04-23 09:53:00,65.9,55.4,30.07,South,179,4.6,4.6,69,0.00,CLR,FEW,0.00,WeatherDisplay:10.37,2013-04-23 14:53:00,
2013-04-23 09:58:00,66.0,55.5,30.07,East,94,3.5,3.5,69,0.00,CLR,FEW,0.00,WeatherDisplay:10.37,2013-04-23 14:58:00,
2013-04-23 10:03:00,66.2,55.3,30.07,SSE,153,8.1,8.1,68,0.00,CLR,FEW,0.00,WeatherDisplay:10.37,2013-04-23 15:03:00,
2013-04-23 10:08:00,66.1,55.2,30.07,West,279,5.8,5.8,68,0.00,CLR,FEW,0.00,WeatherDisplay:10.37,2013-04-23 15:08:00,
2013-04-23 10:13:00,66.1,55.6,30.07,SSW,205,8.1,8.1,69,0.00,CLR,FEW,0.00,WeatherDisplay:10.37,2013-04-23 15:13:00,
2013-04-23 10:18:00,66.1,55.2,30.08,SW,224,5.8,5.8,68,0.00,CLR,FEW,0.00,WeatherDisplay:10.37,2013-04-23 15:18:00,
2013-04-23 10:23:00,66.1,55.2,30.08,WSW,256,8.1,8.1,68,0.00,SCT,FEW,0.00,WeatherDisplay:10.37,2013-04-23 15:23:00,
2013-04-23 10:28:00,66.3,55.8,30.08,SE,128,6.9,6.9,69,0.00,SCT,FEW,0.00,WeatherDisplay:10.37,2013-04-23 15:28:00,
2013-04-23 10:33:00,66.6,55.7,30.08,SSE,165,11.5,11.5,68,0.00,SCT,FEW,0.00,WeatherDisplay:10.37,2013-04-23 15:33:00,
2013-04-23 10:38:00,66.7,55.4,30.07,SSE,164,6.9,6.9,67,0.00,SCT,FEW,0.00,WeatherDisplay:10.37,2013-04-23 15:38:00,
2013-04-23 10:43:00,66.8,55.9,30.08,SSW,204,5.8,5.8,68,0.00,SCT,FEW,0.00,WeatherDisplay:10.37,2013-04-23 15:43:00,
2013-04-23 10:48:00,66.9,55.6,30.08,SW,223,6.9,6.9,67,0.00,SCT,FEW,0.00,WeatherDisplay:10.37,2013-04-23 15:48:00,
2013-04-23 10:53:00,66.9,55.6,30.08,ESE,108,5.8,5.8,67,0.00,SCT,FEW,0.00,WeatherDisplay:10.37,2013-04-23 15:53:00,
2013-04-23 10:58:00,66.9,55.6,30.08,West,268,3.5,3.5,67,0.00,SCT,FEW,0.00,WeatherDisplay:10.37,2013-04-23 15:58:00,
2013-04-23 11:03:00,66.9,55.2,30.08,SW,229,3.5,3.5,66,0.00,FEW,,0.00,WeatherDisplay:10.37,2013-04-23 16:03:00,
2013-04-23 11:08:00,67.1,55.4,30.08,South,189,3.5,3.5,66,0.00,FEW,,0.00,WeatherDisplay:10.37,2013-04-23 16:08:00,
2013-04-23 11:13:00,67.4,55.2,30.09,South,178,7.5,7.5,65,0.00,FEW,,0.00,WeatherDisplay:10.37,2013-04-23 16:13:00,
2013-04-23 11:18:00,67.5,54.9,30.09,South,173,8.1,8.1,64,0.00,FEW,,0.00,WeatherDisplay:10.37,2013-04-23 16:18:00,
2013-04-23 11:23:00,68.0,55.4,30.09,South,176,9.2,9.2,64,0.00,FEW,,0.00,WeatherDisplay:10.37,2013-04-23 16:23:00,
2013-04-23 11:28:00,68.7,56.5,30.09,South,182,3.2,3.2,65,0.00,FEW,,0.00,WeatherDisplay:10.37,2013-04-23 16:28:00,
2013-04-23 11:33:00,69.7,56.5,30.09,West,269,5.8,5.8,63,0.00,FEW,,0.00,WeatherDisplay:10.37,2013-04-23 16:33:00,
2013-04-23 11:38:00,70.2,56.1,30.09,WSW,250,12.7,12.7,61,0.00,FEW,,0.00,WeatherDisplay:10.37,2013-04-23 16:38:00,
2013-04-23 11:43:00,70.2,55.7,30.08,ESE,118,8.1,8.1,60,0.00,FEW,,0.00,WeatherDisplay:10.37,2013-04-23 16:43:00,
2013-04-23 11:48:00,70.2,56.1,30.08,SW,220,6.9,6.9,61,0.00,FEW,,0.00,WeatherDisplay:10.37,2013-04-23 16:48:00,
2013-04-23 11:54:00,70.4,56.3,30.08,South,171,9.2,9.2,61,0.00,FEW,,0.00,WeatherDisplay:10.37,2013-04-23 16:54:00,
2013-04-23 11:59:00,70.3,55.3,30.07,ESE,113,8.1,8.1,59,0.00,FEW,,0.00,WeatherDisplay:10.37,2013-04-23 16:59:00,
2013-04-23 12:04:00,70.0,55.5,30.07,SE,136,6.9,6.9,60,0.00,FEW,,0.00,WeatherDisplay:10.37,2013-04-23 17:04:00,
2013-04-23 12:09:00,69.8,55.7,30.07,WSW,242,6.9,6.9,61,0.00,FEW,,0.00,WeatherDisplay:10.37,2013-04-23 17:09:00,
2013-04-23 12:14:00,69.7,56.1,30.07,South,174,10.4,10.4,62,0.00,FEW,,0.00,WeatherDisplay:10.37,2013-04-23 17:14:00,
2013-04-23 12:19:00,69.5,56.3,30.07,SSE,155,2.3,2.3,63,0.00,FEW,,0.00,WeatherDisplay:10.37,2013-04-23 17:19:00,
2013-04-23 12:24:00,69.7,56.5,30.07,ESE,116,5.8,5.8,63,0.00,BKN,FEW,0.00,WeatherDisplay:10.37,2013-04-23 17:24:00,
2013-04-23 12:29:00,70.0,56.4,30.07,SSW,200,8.1,8.1,62,0.00,BKN,FEW,0.00,WeatherDisplay:10.37,2013-04-23 17:29:00,
2013-04-23 12:34:00,70.3,56.2,30.06,SSE,167,8.1,8.1,61,0.00,BKN,FEW,0.00,WeatherDisplay:10.37,2013-04-23 17:34:00,
2013-04-23 12:39:00,70.5,55.9,30.06,SSW,199,4.6,4.6,60,0.00,BKN,FEW,0.00,WeatherDisplay:10.37,2013-04-23 17:39:00,
2013-04-23 12:44:00,71.0,56.9,30.05,South,175,8.1,8.1,61,0.00,BKN,FEW,0.00,WeatherDisplay:10.37,2013-04-23 17:44:00,
2013-04-23 12:49:00,71.5,57.3,30.04,West,280,6.9,6.9,61,0.00,BKN,FEW,0.00,WeatherDisplay:10.37,2013-04-23 17:49:00,
2013-04-23 12:54:00,71.7,57.1,30.05,SSE,148,10.4,10.4,60,0.00,BKN,FEW,0.00,WeatherDisplay:10.37,2013-04-23 17:54:00,
2013-04-23 12:59:00,71.8,57.2,30.04,ESE,112,5.8,5.8,60,0.00,BKN,FEW,0.00,WeatherDisplay:10.37,2013-04-23 17:59:00,
2013-04-23 13:04:00,72.1,56.5,30.03,South,179,8.1,8.1,58,0.00,BKN,FEW,0.00,WeatherDisplay:10.37,2013-04-23 18:04:00,
2013-04-23 13:09:00,72.4,57.3,30.03,SSE,159,8.1,8.1,59,0.00,BKN,FEW,0.00,WeatherDisplay:10.37,2013-04-23 18:09:00,
2013-04-23 13:14:00,72.6,57.9,30.03,SW,225,8.1,8.1,60,0.00,BKN,FEW,0.00,WeatherDisplay:10.37,2013-04-23 18:14:00,
2013-04-23 13:19:00,72.5,57.4,30.02,SE,134,6.9,6.9,59,0.00,BKN,FEW,0.00,WeatherDisplay:10.37,2013-04-23 18:19:00,
2013-04-23 13:24:00,72.4,57.3,30.02,ESE,115,4.3,4.3,59,0.00,BKN,FEW,0.00,WeatherDisplay:10.37,2013-04-23 18:24:00,
2013-04-23 13:29:00,72.3,57.2,30.01,ESE,117,3.5,3.5,59,0.00,BKN,FEW,0.00,WeatherDisplay:10.37,2013-04-23 18:29:00,
2013-04-23 13:34:00,72.7,57.5,30.01,SSW,194,9.2,9.2,59,0.00,BKN,FEW,0.00,WeatherDisplay:10.37,2013-04-23 18:34:00,
2013-04-23 13:39:00,73.0,57.3,30.00,SSE,162,3.5,3.5,58,0.00,BKN,FEW,0.00,WeatherDisplay:10.37,2013-04-23 18:39:00,
2013-04-23 13:44:00,73.6,57.4,30.00,SE,144,9.2,9.2,57,0.00,BKN,FEW,0.00,WeatherDisplay:10.37,2013-04-23 18:44:00,
2013-04-23 13:49:00,73.5,57.3,30.00,SSW,206,9.2,9.2,57,0.00,BKN,FEW,0.00,WeatherDisplay:10.37,2013-04-23 18:49:00,
2013-04-23 13:54:00,73.9,57.7,29.99,WSW,240,6.9,6.9,57,0.00,BKN,FEW,0.00,WeatherDisplay:10.37,2013-04-23 18:54:00,
2013-04-23 13:59:00,73.9,57.2,29.99,SSW,205,8.1,8.1,56,0.00,BKN,FEW,0.00,WeatherDisplay:10.37,2013-04-23 18:59:00,
2013-04-23 14:04:00,74.1,57.9,29.99,SSE,152,6.4,6.4,57,0.00,BKN,FEW,0.00,WeatherDisplay:10.37,2013-04-23 19:04:00,
2013-04-23 14:09:00,74.8,57.0,29.99,East,90,6.9,6.9,54,0.00,BKN,FEW,0.00,WeatherDisplay:10.37,2013-04-23 19:09:00,
2013-04-23 14:14:00,75.4,58.6,29.99,SW,227,8.1,8.1,56,0.00,BKN,FEW,0.00,WeatherDisplay:10.37,2013-04-23 19:14:00,
2013-04-23 14:19:00,74.9,56.6,29.98,SSW,193,8.1,8.1,53,0.00,BKN,FEW,0.00,WeatherDisplay:10.37,2013-04-23 19:19:00,
2013-04-23 14:24:00,74.6,57.9,29.98,SE,134,8.1,8.1,56,0.00,BKN,FEW,0.00,WeatherDisplay:10.37,2013-04-23 19:24:00,
2013-04-23 14:29:00,74.4,56.7,29.98,South,173,8.1,8.1,54,0.00,BKN,FEW,0.00,WeatherDisplay:10.37,2013-04-23 19:29:00,
2013-04-23 14:34:00,74.4,56.7,29.98,South,171,3.5,3.5,54,0.00,BKN,FEW,0.00,WeatherDisplay:10.37,2013-04-23 19:34:00,
2013-04-23 14:39:00,74.1,55.3,29.98,South,190,10.4,10.4,52,0.00,BKN,FEW,0.00,WeatherDisplay:10.37,2013-04-23 19:39:00,
2013-04-23 14:44:00,73.9,56.2,29.98,East,88,8.1,8.1,54,0.00,BKN,FEW,0.00,WeatherDisplay:10.37,2013-04-23 19:44:00,
2013-04-23 14:49:00,74.0,55.8,29.98,SSW,202,10.4,10.4,53,0.00,BKN,FEW,0.00,WeatherDisplay:10.37,2013-04-23 19:49:00,
2013-04-23 14:54:00,73.9,55.7,29.97,SSE,149,10.4,10.4,53,0.00,BKN,FEW,0.00,WeatherDisplay:10.37,2013-04-23 19:54:00,
2013-04-23 14:59:00,74.1,56.4,29.97,South,170,8.1,8.1,54,0.00,BKN,FEW,0.00,WeatherDisplay:10.37,2013-04-23 19:59:00,
2013-04-23 15:04:00,74.8,57.0,29.97,SSW,198,8.1,8.1,54,0.00,BKN,FEW,0.00,WeatherDisplay:10.37,2013-04-23 20:04:00,
2013-04-23 15:09:00,75.2,56.9,29.97,SSE,148,9.2,9.2,53,0.00,BKN,FEW,0.00,WeatherDisplay:10.37,2013-04-23 20:09:00,
2013-04-23 15:14:00,75.8,56.4,29.96,South,174,5.8,5.9,51,0.00,BKN,FEW,0.00,WeatherDisplay:10.37,2013-04-23 20:14:00,
2013-04-23 15:19:00,76.1,56.7,29.96,SW,229,8.1,8.1,51,0.00,BKN,FEW,0.00,WeatherDisplay:10.37,2013-04-23 20:19:00,
2013-04-23 15:24:00,75.7,55.7,29.96,SE,125,6.9,6.9,50,0.00,SCT,FEW,0.00,WeatherDisplay:10.37,2013-04-23 20:24:00,
2013-04-23 15:30:00,75.3,56.5,29.96,SSE,159,8.1,8.1,52,0.00,SCT,FEW,0.00,WeatherDisplay:10.37,2013-04-23 20:30:00,
2013-04-23 15:35:00,74.9,55.0,29.96,SSW,207,11.5,11.5,50,0.00,SCT,FEW,0.00,WeatherDisplay:10.37,2013-04-23 20:35:00,
2013-04-23 15:40:00,74.9,55.6,29.95,South,172,8.1,8.1,51,0.00,SCT,FEW,0.00,WeatherDisplay:10.37,2013-04-23 20:40:00,
2013-04-23 15:45:00,75.4,56.0,29.95,South,172,8.1,8.1,51,0.00,SCT,FEW,0.00,WeatherDisplay:10.37,2013-04-23 20:45:00,
2013-04-23 15:50:00,75.7,56.3,29.95,SW,223,6.9,6.9,51,0.00,SCT,FEW,0.00,WeatherDisplay:10.37,2013-04-23 20:50:00,
2013-04-23 15:55:00,76.1,56.7,29.95,SSW,204,8.1,8.1,51,0.00,SCT,FEW,0.00,WeatherDisplay:10.37,2013-04-23 20:55:00,
2013-04-23 16:00:00,76.7,57.7,29.95,South,186,11.8,11.8,52,0.00,SCT,FEW,0.00,WeatherDisplay:10.37,2013-04-23 21:00:00,
2013-04-23 16:05:00,76.4,55.8,29.94,SW,215,10.4,10.4,49,0.00,SCT,FEW,0.00,WeatherDisplay:10.37,2013-04-23 21:05:00,
2013-04-23 16:10:00,76.2,57.3,29.94,SSW,198,13.8,13.8,52,0.00,SCT,FEW,0.00,WeatherDisplay:10.37,2013-04-23 21:10:00,
2013-04-23 16:15:00,76.4,56.9,29.94,South,175,10.4,10.4,51,0.00,SCT,FEW,0.00,WeatherDisplay:10.37,2013-04-23 21:15:00,
2013-04-23 16:20:00,76.9,57.4,29.94,SSW,194,9.2,9.2,51,0.00,BKN,FEW,0.00,WeatherDisplay:10.37,2013-04-23 21:20:00,
2013-04-23 16:25:00,77.3,57.8,29.94,South,175,3.5,3.5,51,0.00,BKN,FEW,0.00,WeatherDisplay:10.37,2013-04-23 21:25:00,
2013-04-23 16:30:00,77.2,57.7,29.94,WNW,294,5.8,5.8,51,0.00,BKN,FEW,0.00,WeatherDisplay:10.37,2013-04-23 21:30:00,
2013-04-23 16:35:00,77.0,56.9,29.94,South,184,5.3,5.3,50,0.00,BKN,FEW,0.00,WeatherDisplay:10.37,2013-04-23 21:35:00,
2013-04-23 16:40:00,77.2,56.6,29.94,SSE,160,12.7,12.7,49,0.00,BKN,FEW,0.00,WeatherDisplay:10.37,2013-04-23 21:40:00,
2013-04-23 16:45:00,76.7,56.1,29.93,South,182,13.8,13.8,49,0.00,BKN,FEW,0.00,WeatherDisplay:10.37,2013-04-23 21:45:00,
2013-04-23 16:50:00,76.0,57.1,29.93,SE,130,5.8,5.8,52,0.00,BKN,FEW,0.00,WeatherDisplay:10.37,2013-04-23 21:50:00,
2013-04-23 16:55:00,75.4,56.5,29.93,SW,233,6.9,6.9,52,0.00,BKN,FEW,0.00,WeatherDisplay:10.37,2013-04-23 21:55:00,
2013-04-23 17:00:00,74.9,56.1,29.93,SSE,166,6.9,6.9,52,0.00,BKN,FEW,0.00,WeatherDisplay:10.37,2013-04-23 22:00:00,
2013-04-23 17:05:00,74.5,56.2,29.93,SW,229,8.1,8.1,53,0.00,BKN,FEW,0.00,WeatherDisplay:10.37,2013-04-23 22:05:00,
2013-04-23 17:10:00,74.0,56.3,29.93,SE,126,4.6,4.6,54,0.00,BKN,FEW,0.00,WeatherDisplay:10.37,2013-04-23 22:10:00,
2013-04-23 17:15:00,73.6,55.9,29.93,South,190,8.1,8.1,54,0.00,BKN,FEW,0.00,WeatherDisplay:10.37,2013-04-23 22:15:00,
2013-04-23 17:20:00,73.6,56.4,29.93,SW,221,13.9,13.9,55,0.00,BKN,FEW,0.00,WeatherDisplay:10.37,2013-04-23 22:20:00,
2013-04-23 17:25:00,73.8,57.1,29.93,SSW,194,6.4,6.4,56,0.00,BKN,FEW,0.00,WeatherDisplay:10.37,2013-04-23 22:25:00,
2013-04-23 17:30:00,74.1,56.4,29.93,SW,223,8.1,8.1,54,0.00,BKN,FEW,0.00,WeatherDisplay:10.37,2013-04-23 22:30:00,
2013-04-23 17:35:00,73.9,56.7,29.93,ENE,67,4.6,4.6,55,0.00,BKN,FEW,0.00,WeatherDisplay:10.37,2013-04-23 22:35:00,
2013-04-23 17:40:00,73.7,57.0,29.93,SE,129,8.1,8.1,56,0.00,BKN,FEW,0.00,WeatherDisplay:10.37,2013-04-23 22:40:00,
2013-04-23 17:45:00,73.9,56.7,29.92,SSW,213,13.8,13.8,55,0.00,BKN,FEW,0.00,WeatherDisplay:10.37,2013-04-23 22:45:00,
2013-04-23 17:50:00,74.2,57.0,29.92,SSW,213,8.1,8.1,55,0.00,BKN,FEW,0.00,WeatherDisplay:10.37,2013-04-23 22:50:00,
2013-04-23 17:55:00,74.4,57.2,29.92,WSW,248,3.5,3.5,55,0.00,BKN,FEW,0.00,WeatherDisplay:10.37,2013-04-23 22:55:00,
2013-04-23 18:00:00,74.2,57.0,29.92,SSE,166,13.8,13.8,55,0.00,BKN,FEW,0.00,WeatherDisplay:10.37,2013-04-23 23:00:00,
2013-04-23 18:05:00,73.8,56.6,29.92,South,191,10.4,10.4,55,0.00,BKN,FEW,0.00,WeatherDisplay:10.37,2013-04-23 23:05:00,
2013-04-23 18:10:00,73.5,56.8,29.92,WSW,243,8.1,8.1,56,0.00,BKN,FEW,0.00,WeatherDisplay:10.37,2013-04-23 23:10:00,
2013-04-23 18:15:00,73.3,56.7,29.92,SSW,192,5.8,5.8,56,0.00,BKN,FEW,0.00,WeatherDisplay:10.37,2013-04-23 23:15:00,
2013-04-23 18:20:00,73.1,57.0,29.92,SSE,159,8.1,8.1,57,0.00,SCT,FEW,0.00,WeatherDisplay:10.37,2013-04-23 23:20:00,
2013-04-23 18:25:00,73.0,56.9,29.92,WSW,252,9.2,9.2,57,0.00,SCT,FEW,0.00,WeatherDisplay:10.37,2013-04-23 23:25:00,
2013-04-23 18:30:00,72.8,57.2,29.92,SW,220,4.6,4.6,58,0.00,SCT,FEW,0.00,WeatherDisplay:10.37,2013-04-23 23:30:00,
2013-04-23 18:35:00,72.6,57.0,29.92,WSW,238,6.9,6.9,58,0.00,SCT,FEW,0.00,WeatherDisplay:10.37,2013-04-23 23:35:00,
2013-04-23 18:41:00,72.5,56.9,29.92,SSE,167,8.1,8.1,58,0.00,SCT,FEW,0.00,WeatherDisplay:10.37,2013-04-23 23:41:00,
2013-04-23 18:46:00,72.4,57.3,29.92,South,173,4.3,4.3,59,0.00,SCT,FEW,0.00,WeatherDisplay:10.37,2013-04-23 23:46:00,
2013-04-23 18:51:00,72.3,57.2,29.91,SSW,205,5.8,5.8,59,0.00,SCT,FEW,0.00,WeatherDisplay:10.37,2013-04-23 23:51:00,
2013-04-23 18:56:00,72.2,57.1,29.91,SSW,210,9.2,9.2,59,0.00,SCT,FEW,0.00,WeatherDisplay:10.37,2013-04-23 23:56:00,
2013-04-23 19:01:00,72.2,57.1,29.92,South,184,4.6,4.6,59,0.00,SCT,FEW,0.00,WeatherDisplay:10.37,2013-04-24 00:01:00,
2013-04-23 19:06:00,72.1,57.0,29.91,South,175,8.1,8.1,59,0.00,SCT,FEW,0.00,WeatherDisplay:10.37,2013-04-24 00:06:00,
2013-04-23 19:11:00,71.9,57.3,29.92,SE,141,9.2,9.2,60,0.00,SCT,FEW,0.00,WeatherDisplay:10.37,2013-04-24 00:11:00,
2013-04-23 19:16:00,71.8,57.6,29.92,SSE,148,9.6,9.6,61,0.00,SCT,FEW,0.00,WeatherDisplay:10.37,2013-04-24 00:16:00,
2013-04-23 19:21:00,71.7,57.5,29.91,SSW,202,6.4,6.4,61,0.00,SCT,FEW,0.00,WeatherDisplay:10.37,2013-04-24 00:21:00,
2013-04-23 19:26:00,71.5,57.3,29.92,SSE,147,5.3,5.3,61,0.00,SCT,FEW,0.00,WeatherDisplay:10.37,2013-04-24 00:26:00,
2013-04-23 19:31:00,71.3,57.6,29.92,SE,138,3.5,3.5,62,0.00,SCT,FEW,0.00,WeatherDisplay:10.37,2013-04-24 00:31:00,
2013-04-23 19:36:00,71.1,57.4,29.92,NNE,17,3.5,3.5,62,0.00,SCT,FEW,0.00,WeatherDisplay:10.37,2013-04-24 00:36:00,
2013-04-23 19:41:00,71.0,57.3,29.92,East,90,3.5,3.5,62,0.00,SCT,FEW,0.00,WeatherDisplay:10.37,2013-04-24 00:41:00,
2013-04-23 19:46:00,70.8,57.6,29.92,SSW,193,4.6,4.6,63,0.00,SCT,FEW,0.00,WeatherDisplay:10.37,2013-04-24 00:46:00,
2013-04-23 19:51:00,70.7,57.5,29.92,South,182,3.5,3.5,63,0.00,SCT,FEW,0.00,WeatherDisplay:10.37,2013-04-24 00:51:00,
2013-04-23 19:56:00,70.5,57.7,29.92,South,186,0.0,0.2,64,0.00,SCT,FEW,0.00,WeatherDisplay:10.37,2013-04-24 00:56:00,
2013-04-23 20:01:00,70.3,57.5,29.92,SSE,157,2.3,2.3,64,0.00,SCT,FEW,0.00,WeatherDisplay:10.37,2013-04-24 01:01:00,
2013-04-23 20:06:00,70.2,57.4,29.92,South,181,4.6,4.6,64,0.00,SCT,FEW,0.00,WeatherDisplay:10.37,2013-04-24 01:06:00,
2013-04-23 20:11:00,70.1,57.4,29.92,SSW,196,4.6,4.6,64,0.00,SCT,FEW,0.00,WeatherDisplay:10.37,2013-04-24 01:11:00,
2013-04-23 20:16:00,69.9,57.6,29.92,WSW,242,4.6,4.6,65,0.00,SCT,FEW,0.00,WeatherDisplay:10.37,2013-04-24 01:16:00,
2013-04-23 20:21:00,69.8,57.5,29.92,SSW,212,8.1,8.1,65,0.00,SCT,FEW,0.00,WeatherDisplay:10.37,2013-04-24 01:21:00,
2013-04-23 20:26:00,69.8,57.5,29.92,SSE,165,6.9,6.9,65,0.00,SCT,FEW,0.00,WeatherDisplay:10.37,2013-04-24 01:26:00,
2013-04-23 20:32:00,69.9,57.6,29.92,SSW,199,2.3,2.3,65,0.00,SCT,FEW,0.00,WeatherDisplay:10.37,2013-04-24 01:32:00,
2013-04-23 20:37:00,69.9,57.6,29.92,SSW,199,4.6,4.6,65,0.00,-DZ,FEW,0.00,WeatherDisplay:10.37,2013-04-24 01:37:00,
2013-04-23 20:42:00,69.7,57.8,29.92,SSE,165,3.2,3.2,66,0.00,-DZ,FEW,0.00,WeatherDisplay:10.37,2013-04-24 01:42:00,
2013-04-23 20:47:00,69.6,57.7,29.93,SSW,201,3.5,3.5,66,0.00,-DZ,FEW,0.00,WeatherDisplay:10.37,2013-04-24 01:47:00,
2013-04-23 20:52:00,69.4,57.5,29.93,South,178,4.6,4.6,66,0.00,FEW,,0.00,WeatherDisplay:10.37,2013-04-24 01:52:00,
2013-04-23 20:57:00,69.3,57.5,29.93,SE,142,2.3,2.3,66,0.00,FEW,,0.00,WeatherDisplay:10.37,2013-04-24 01:57:00,
2013-04-23 21:02:00,69.1,57.7,29.93,South,169,1.2,0.0,67,0.00,FEW,,0.00,WeatherDisplay:10.37,2013-04-24 02:02:00,
2013-04-23 21:07:00,68.9,57.5,29.93,South,180,0.0,0.0,67,0.00,FEW,,0.00,WeatherDisplay:10.37,2013-04-24 02:07:00,
2013-04-23 21:12:00,68.6,57.6,29.93,SSE,157,2.3,2.3,68,0.00,FEW,,0.00,WeatherDisplay:10.37,2013-04-24 02:12:00,
2013-04-23 21:17:00,68.3,57.7,29.93,SSE,152,5.3,5.3,69,0.00,FEW,,0.00,WeatherDisplay:10.37,2013-04-24 02:17:00,
2013-04-23 21:22:00,68.2,57.6,29.93,South,178,8.1,8.1,69,0.00,FEW,,0.00,WeatherDisplay:10.37,2013-04-24 02:22:00,
2013-04-23 21:28:00,68.3,57.7,29.93,South,184,7.5,7.5,69,0.00,FEW,,0.00,WeatherDisplay:10.37,2013-04-24 02:28:00,
2013-04-23 21:34:00,68.4,57.8,29.93,SSW,193,8.1,8.1,69,0.00,FEW,,0.00,WeatherDisplay:10.37,2013-04-24 02:34:00,
2013-04-23 21:39:00,68.5,57.5,29.93,SW,231,5.8,5.8,68,0.00,FEW,,0.00,WeatherDisplay:10.37,2013-04-24 02:39:00,
2013-04-23 21:45:00,68.5,57.5,29.93,SE,144,1.2,1.2,68,0.00,FEW,,0.00,WeatherDisplay:10.37,2013-04-24 02:45:00,
2013-04-23 21:50:00,68.5,57.5,29.93,ESE,118,1.2,1.2,68,0.00,FEW,,0.00,WeatherDisplay:10.37,2013-04-24 02:50:00,
2013-04-23 21:55:00,68.4,57.8,29.93,SSE,152,4.6,4.6,69,0.00,FEW,,0.00,WeatherDisplay:10.37,2013-04-24 02:55:00,
2013-04-23 22:00:00,68.3,57.7,29.93,South,182,1.2,1.4,69,0.00,FEW,,0.00,WeatherDisplay:10.37,2013-04-24 03:00:00,
2013-04-23 22:06:00,68.2,57.2,29.93,SSW,207,8.1,8.1,68,0.00,CLR,FEW,0.00,WeatherDisplay:10.37,2013-04-24 03:06:00,
2013-04-23 22:11:00,68.3,57.3,29.93,SW,217,5.3,5.3,68,0.00,CLR,FEW,0.00,WeatherDisplay:10.37,2013-04-24 03:11:00,
2013-04-23 22:16:00,68.4,57.4,29.93,ESE,111,4.6,4.6,68,0.00,CLR,FEW,0.00,WeatherDisplay:10.37,2013-04-24 03:16:00,
2013-04-23 22:22:00,68.3,57.3,29.93,SSW,197,6.9,6.9,68,0.00,CLR,FEW,0.00,WeatherDisplay:10.37,2013-04-24 03:22:00,
2013-04-23 22:27:00,68.2,57.2,29.93,South,170,6.9,6.9,68,0.00,CLR,FEW,0.00,WeatherDisplay:10.37,2013-04-24 03:27:00,
2013-04-23 22:32:00,68.2,57.6,29.92,SSE,159,8.1,8.1,69,0.00,CLR,FEW,0.00,WeatherDisplay:10.37,2013-04-24 03:32:00,
2013-04-23 22:38:00,68.3,57.3,29.92,South,185,6.9,6.9,68,0.00,CLR,FEW,0.00,WeatherDisplay:10.37,2013-04-24 03:38:00,
2013-04-23 22:43:00,68.3,57.7,29.92,SSE,162,4.6,4.6,69,0.00,CLR,FEW,0.00,WeatherDisplay:10.37,2013-04-24 03:43:00,
2013-04-23 22:48:00,68.2,57.6,29.93,East,95,8.1,8.1,69,0.00,CLR,FEW,0.00,WeatherDisplay:10.37,2013-04-24 03:48:00,
2013-04-23 22:53:00,68.1,57.5,29.92,South,176,6.9,6.9,69,0.00,CLR,FEW,0.00,WeatherDisplay:10.37,2013-04-24 03:53:00,
2013-04-23 22:59:00,68.2,57.6,29.92,SW,220,5.8,5.8,69,0.00,CLR,FEW,0.00,WeatherDisplay:10.37,2013-04-24 03:59:00,
2013-04-23 23:01:00,68.2,57.6,29.92,ESE,106,5.8,5.8,69,0.00,CLR,FEW,0.00,WeatherDisplay:10.37,2013-04-24 04:01:00,
2013-04-23 23:06:00,68.2,57.6,29.92,SW,221,3.5,3.5,69,0.00,CLR,FEW,0.00,WeatherDisplay:10.37,2013-04-24 04:06:00,
2013-04-23 23:11:00,68.1,57.5,29.92,WSW,258,8.1,8.1,69,0.00,CLR,FEW,0.00,WeatherDisplay:10.37,2013-04-24 04:11:00,
2013-04-23 23:16:00,68.0,57.4,29.92,South,184,5.8,5.8,69,0.00,CLR,FEW,0.00,WeatherDisplay:10.37,2013-04-24 04:16:00,
2013-04-23 23:21:00,67.9,57.8,29.92,SW,214,3.5,3.5,70,0.00,FEW,,0.00,WeatherDisplay:10.37,2013-04-24 04:21:00,
2013-04-23 23:26:00,67.9,57.8,29.92,SW,221,5.8,5.8,70,0.00,FEW,,0.00,WeatherDisplay:10.37,2013-04-24 04:26:00,
2013-04-23 23:31:00,67.7,57.6,29.91,SE,142,6.9,6.9,70,0.00,FEW,,0.00,WeatherDisplay:10.37,2013-04-24 04:31:00,
2013-04-23 23:36:00,67.7,57.6,29.91,SSE,166,8.6,8.6,70,0.00,FEW,,0.00,WeatherDisplay:10.37,2013-04-24 04:36:00,
2013-04-23 23:41:00,67.8,57.7,29.91,SW,227,6.4,6.4,70,0.00,FEW,,0.00,WeatherDisplay:10.37,2013-04-24 04:41:00,
2013-04-23 23:46:00,67.9,57.8,29.91,South,184,13.8,13.8,70,0.00,FEW,,0.00,WeatherDisplay:10.37,2013-04-24 04:46:00,
2013-04-23 23:51:00,67.9,57.8,29.91,SSE,162,6.9,6.9,70,0.00,FEW,,0.00,WeatherDisplay:10.37,2013-04-24 04:51:00,
2013-04-23 23:56:00,67.8,57.7,29.91,West,262,6.9,6.9,70,0.00,FEW,,0.00,WeatherDisplay:10.37,2013-04-24 04:56:00,